Wind_Speed
21 20 17 13 11 7 3 1 1 3 4 5 6 7 7 8 9 9 9 9 9 9 9 9 8 8 8 7 7 7 7 7 6 6 6 5 4 4 3 3 3 3
26 25 23 21 19 13 6 4 2 2 3 4 5 7 9 10 11 12 12 12 12 12 12 12 11 11 11 10 10 10 9 9 8 8 8 7 7 7 7 7 7 6
32 32 30 28 24 17 11 7 4 4 4 4 7 9 11 12 13 14 15 14 14 13 13 12 12 11 11 10 9 9 8 8 7 7 6 6 6 6 6 6 6 6
29 32 33 32 25 17 15 10 7 7 6 7 9 10 12 13 14 14 15 15 14 12 12 12 11 11 10 10 9 9 8 8 7 7 6 5 4 4 3 3 3 3
16 15 19 24 22 15 17 14 11 12 10 10 11 11 13 13 13 14 13 13 12 11 11 10 10 10 10 9 9 9 8 8 8 7 7 6 5 4 3 2 1 1
11 8 6 12 15 14 18 16 15 15 13 12 13 13 13 13 13 13 12 11 10 10 9 8 7 7 7 7 7 7 7 7 6 6 6 6 6 6 5 5 4 3
15 9 9 10 13 16 19 19 18 17 15 15 14 14 14 13 13 12 11 10 9 8 7 5 5 5 4 5 5 5 5 5 5 5 5 5 6 7 7 8 8 8
14 7 12 11 13 19 21 20 21 20 17 16 15 15 14 13 13 13 11 11 9 8 7 5 5 4 4 3 4 4 4 4 5 5 6 6 7 8 8 9 10 11
10 8 13 12 14 22 23 22 23 22 20 19 16 15 15 15 15 14 13 12 12 10 9 8 8 7 5 2 1 1 4 5 7 8 8 9 10 10 10 10 10 11
8 9 13 14 18 25 26 24 25 24 22 21 19 18 17 17 17 16 15 14 13 13 12 12 12 12 9 7 5 3 5 8 9 11 12 12 12 12 12 12 12 12
11 11 15 17 19 23 25 26 27 26 25 23 21 20 20 19 19 19 18 17 16 16 15 15 15 15 13 12 9 6 6 9 11 12 13 14 14 13 12 13 13 13
14 13 17 20 21 20 22 28 30 28 28 28 26 24 23 22 22 23 22 21 20 20 19 18 18 17 15 14 11 8 7 9 11 13 15 15 15 15 14 14 14 14
16 16 18 20 21 21 23 29 32 31 32 31 28 27 28 29 29 28 28 27 26 26 24 21 19 17 14 12 10 8 8 9 12 14 16 16 16 15 15 16 17 16
17 18 20 20 21 24 26 28 31 34 35 32 30 30 31 32 33 33 33 33 31 31 27 21 18 16 12 11 10 9 9 10 12 15 15 15 14 13 13 15 18 19
19 20 22 22 24 28 29 28 28 32 33 32 32 33 32 35 38 38 37 36 34 33 27 17 14 15 13 12 11 10 10 11 12 13 13 13 13 13 12 12 15 18
21 22 24 25 26 26 27 28 27 27 27 27 28 29 29 32 33 34 32 30 30 29 20 9 7 10 11 11 9 10 11 13 14 14 14 13 13 14 13 13 14 15
22 24 26 27 26 23 23 26 25 21 19 20 20 20 20 18 16 16 17 15 13 13 9 5 5 7 8 9 10 12 13 14 15 15 15 16 16 16 17 17 18 18
20 22 25 27 27 25 26 27 24 18 16 16 15 14 13 12 11 12 12 9 7 8 8 7 8 9 11 12 12 13 14 14 15 16 17 18 20 21 22 22 22 22
19 19 22 25 27 26 27 26 21 17 16 17 16 14 12 12 15 16 14 12 12 12 10 10 11 13 13 14 14 15 15 16 17 19 21 23 24 26 27 27 28 27
21 21 21 22 22 22 23 24 21 19 19 19 18 17 15 15 16 17 15 15 16 14 13 14 14 14 15 15 16 16 18 19 21 23 24 25 26 27 28 29 30 30
23 24 24 24 22 21 21 22 21 20 19 19 19 17 17 17 17 16 15 17 17 16 16 17 17 17 17 17 18 19 21 22 22 23 23 24 24 25 27 28 29 29
25 25 26 26 24 23 22 21 20 20 21 20 19 19 18 18 18 17 17 18 18 17 18 18 19 19 18 19 20 21 22 22 23 23 23 24 25 25 26 27 27 28
27 27 28 27 25 23 23 22 22 22 22 22 21 20 20 19 18 18 19 19 19 19 20 20 20 20 19 20 22 23 23 24 24 25 25 25 25 26 26 27 27 28
29 28 28 27 25 23 22 22 22 22 22 23 22 22 22 20 19 20 21 21 21 22 22 22 21 21 21 21 23 24 24 25 26 26 26 26 26 26 27 28 28 29
29 29 28 28 27 25 23 22 22 23 24 25 25 25 23 21 20 21 21 22 23 23 23 22 21 21 22 23 24 25 26 27 27 28 28 28 28 28 28 29 29 30
29 31 31 29 27 25 23 22 23 23 23 24 24 24 23 22 21 21 22 22 23 23 23 22 22 23 24 25 27 28 28 28 28 29 29 30 30 30 30 30 30 31
Wind_Direction
239 233 226 209 203 205 192 201 350 37 54 65 82 89 91 95 96 97 101 105 108 113 115 118 119 116 116 115 113 113 115 118 123 127 129 134 137 139 140 138 137 138
236 230 226 215 211 217 213 196 173 86 84 87 99 104 104 105 107 106 107 108 108 109 109 108 108 107 107 106 103 104 103 102 104 106 109 111 112 113 114 112 114 118
231 227 228 227 224 216 198 186 172 144 132 129 121 117 116 115 115 115 113 113 110 108 107 103 100 97 94 91 88 87 85 85 84 82 86 91 95 98 101 103 106 112
240 233 232 237 242 218 183 178 172 159 156 151 140 131 128 124 121 119 116 115 113 110 107 102 97 91 85 79 74 69 65 62 59 56 55 55 57 66 74 84 95 105
257 255 241 240 249 218 178 176 170 163 165 161 152 143 137 133 130 127 125 123 122 119 114 105 96 89 82 76 70 63 55 49 46 44 42 37 30 25 20 9 3 357
267 272 233 223 232 199 177 180 172 167 172 167 161 155 149 146 143 139 138 136 133 130 123 109 97 87 78 74 72 66 57 49 42 38 32 26 17 6 353 339 324 312
280 248 189 207 227 200 183 184 178 175 179 177 175 172 166 164 162 159 159 158 154 150 143 128 112 102 88 79 69 58 52 41 27 18 7 359 355 347 338 329 319 309
288 237 183 202 227 207 191 189 186 182 184 188 190 189 186 185 184 182 181 181 179 173 163 153 141 131 122 104 73 41 18 1 348 337 328 323 318 315 316 316 313 308
278 231 193 194 212 207 198 196 195 190 189 195 202 206 205 203 204 203 201 200 197 190 179 168 159 152 154 166 150 339 316 310 308 306 304 303 301 298 296 295 297 299
270 230 211 205 208 208 204 201 202 200 197 200 207 217 218 216 217 216 213 211 207 202 195 187 181 179 185 201 214 251 283 289 292 294 294 294 294 292 288 283 279 281
274 239 230 227 223 219 211 205 207 208 206 206 210 220 227 227 226 224 222 217 210 204 204 204 201 201 206 211 210 223 261 276 282 287 289 288 286 282 278 276 272 270
278 258 244 238 236 234 220 208 209 212 213 213 213 216 226 233 231 228 225 220 214 210 207 208 209 211 217 220 217 223 249 268 278 284 285 284 282 276 269 265 266 268
272 266 256 245 239 238 226 211 210 215 219 223 223 220 225 232 235 235 231 223 217 215 212 210 213 214 212 216 226 241 258 272 281 286 286 284 284 283 274 262 258 260
263 264 262 256 245 240 234 222 217 220 223 227 233 231 231 234 238 241 240 233 225 222 220 215 211 209 207 218 238 253 261 268 274 279 282 285 287 290 288 274 261 258
257 260 261 260 252 243 237 231 228 231 231 231 234 237 240 243 242 242 244 247 244 236 231 224 213 212 221 233 244 252 255 259 264 269 275 281 286 289 292 287 274 266
250 254 257 261 262 254 242 234 233 239 244 245 241 242 248 253 251 246 247 256 260 252 246 242 225 222 229 237 245 253 254 255 257 261 265 270 277 281 283 284 282 277
250 252 254 257 261 259 246 238 238 241 246 247 243 242 246 249 249 244 242 251 260 252 242 230 222 224 228 235 242 246 249 252 255 260 265 269 274 278 280 280 280 280
251 252 250 248 248 248 242 236 235 235 235 235 233 231 232 231 223 219 226 232 216 199 197 207 218 221 224 231 238 244 249 253 257 263 268 272 275 277 279 281 281 280
247 249 247 243 240 243 245 242 237 232 228 226 229 229 224 221 218 216 220 220 207 199 204 215 220 222 229 238 245 252 257 260 264 268 270 273 275 276 278 280 281 281
246 245 242 238 237 242 249 247 239 234 229 226 229 232 226 218 217 219 219 210 203 207 215 219 222 229 238 244 250 257 265 270 273 274 274 276 277 278 279 279 280 280
253 246 239 236 238 244 250 245 236 233 232 229 229 229 225 221 220 222 216 208 209 216 218 217 222 231 238 244 252 261 268 272 273 273 274 275 276 276 277 278 278 279
261 250 240 237 237 241 245 242 234 230 229 229 229 229 229 228 227 225 218 214 217 221 219 220 226 233 239 247 255 262 267 269 271 274 276 277 277 276 275 275 275 276
263 251 242 238 237 236 236 234 229 227 227 228 229 232 233 231 228 227 224 222 223 223 224 229 234 238 243 250 256 262 266 269 273 277 279 280 280 280 278 277 277 277
260 249 240 236 235 231 227 228 228 227 227 230 231 233 234 232 227 223 221 222 225 228 231 235 238 241 247 253 259 264 268 272 276 278 280 281 281 280 280 279 279 279
261 252 242 236 233 229 224 225 228 229 229 231 233 234 234 231 227 224 222 224 227 229 232 236 240 246 253 258 263 267 270 273 276 278 279 281 281 281 280 280 280 280
261 256 248 239 231 226 223 225 230 232 233 233 234 235 234 231 228 227 226 228 230 232 235 240 247 253 258 262 265 267 270 272 274 277 279 281 281 280 280 280 280 280
Height
3130 3129 3129 3130 3130 3130 3131 3131 3131 3130 3129 3129 3128 3128 3128 3128 3129 3130 3130 3131 3132 3134 3134 3135 3135 3135 3135 3136 3136 3136 3136 3136 3136 3136 3136 3136 3137 3137 3137 3138 3138 3139
3127 3127 3127 3127 3127 3128 3131 3131 3131 3131 3130 3129 3129 3129 3129 3129 3130 3130 3132 3133 3134 3135 3136 3137 3137 3137 3137 3137 3138 3138 3138 3138 3138 3138 3137 3138 3138 3138 3138 3139 3139 3139
3123 3123 3124 3125 3125 3128 3130 3131 3131 3131 3131 3130 3130 3130 3130 3130 3131 3132 3133 3134 3135 3136 3137 3138 3138 3139 3139 3139 3139 3140 3140 3140 3140 3139 3139 3139 3139 3140 3140 3140 3140 3141
3120 3120 3121 3123 3125 3126 3128 3130 3131 3131 3131 3131 3131 3131 3131 3132 3132 3133 3134 3135 3136 3137 3138 3139 3140 3140 3140 3141 3141 3141 3141 3141 3141 3141 3141 3141 3141 3141 3141 3141 3141 3142
3119 3118 3119 3121 3123 3124 3127 3128 3130 3131 3131 3132 3132 3132 3133 3133 3133 3134 3135 3135 3137 3138 3139 3140 3140 3141 3141 3141 3142 3142 3142 3142 3142 3142 3142 3142 3142 3142 3142 3142 3142 3142
3117 3118 3119 3121 3122 3124 3126 3127 3128 3130 3131 3132 3133 3133 3133 3134 3134 3135 3135 3136 3137 3138 3139 3140 3140 3141 3141 3141 3142 3142 3142 3142 3142 3142 3142 3142 3142 3143 3143 3143 3143 3143
3116 3117 3119 3121 3123 3124 3125 3126 3127 3129 3130 3132 3133 3133 3133 3134 3134 3135 3135 3136 3137 3137 3138 3139 3140 3140 3140 3141 3141 3141 3142 3142 3142 3142 3142 3142 3142 3142 3142 3143 3143 3143
3116 3117 3118 3119 3122 3124 3125 3126 3126 3127 3128 3130 3132 3133 3133 3134 3134 3134 3135 3135 3136 3137 3137 3138 3139 3139 3139 3140 3140 3140 3140 3141 3141 3141 3141 3141 3141 3141 3141 3142 3142 3142
3115 3116 3116 3117 3120 3122 3124 3125 3126 3126 3127 3129 3131 3132 3132 3132 3133 3133 3134 3134 3135 3135 3135 3136 3136 3137 3137 3138 3138 3139 3139 3139 3139 3139 3139 3139 3139 3140 3140 3140 3140 3140
3113 3114 3115 3116 3118 3120 3121 3123 3125 3125 3125 3127 3129 3130 3130 3131 3131 3132 3132 3133 3134 3133 3133 3133 3133 3134 3134 3135 3135 3136 3137 3137 3138 3138 3138 3137 3137 3138 3138 3138 3138 3138
3111 3112 3112 3113 3115 3118 3119 3121 3123 3124 3124 3125 3126 3128 3129 3129 3130 3130 3131 3131 3132 3132 3132 3132 3132 3132 3132 3133 3133 3134 3135 3136 3136 3136 3136 3136 3136 3135 3136 3136 3136 3136
3108 3109 3109 3110 3112 3115 3116 3117 3119 3121 3122 3122 3123 3125 3127 3127 3128 3128 3128 3129 3129 3129 3129 3130 3130 3130 3131 3132 3132 3131 3132 3133 3134 3135 3135 3134 3134 3134 3134 3134 3134 3134
3106 3107 3107 3108 3109 3111 3112 3114 3116 3118 3118 3119 3121 3122 3123 3124 3125 3125 3125 3125 3125 3125 3126 3126 3127 3127 3128 3129 3130 3130 3130 3131 3132 3132 3133 3133 3132 3132 3132 3132 3132 3133
3104 3104 3104 3105 3107 3107 3108 3111 3113 3114 3115 3117 3118 3119 3120 3120 3121 3121 3121 3121 3121 3122 3123 3124 3124 3124 3126 3127 3128 3128 3128 3129 3130 3130 3130 3131 3131 3131 3130 3130 3131 3131
3102 3102 3103 3103 3104 3104 3105 3108 3110 3111 3112 3114 3116 3116 3117 3117 3117 3117 3117 3118 3118 3119 3120 3121 3121 3122 3124 3125 3125 3126 3126 3127 3128 3128 3128 3129 3129 3129 3129 3129 3129 3129
3100 3100 3101 3101 3101 3102 3103 3104 3105 3107 3110 3112 3113 3113 3113 3113 3113 3113 3115 3116 3116 3116 3118 3119 3119 3121 3122 3123 3123 3123 3124 3125 3125 3126 3126 3126 3126 3126 3126 3126 3126 3126
3098 3098 3098 3098 3099 3100 3101 3101 3101 3104 3107 3108 3109 3109 3109 3109 3109 3111 3112 3113 3113 3114 3115 3117 3118 3119 3120 3120 3121 3121 3122 3122 3123 3123 3123 3123 3123 3124 3124 3124 3124 3124
3095 3095 3094 3095 3096 3097 3098 3098 3099 3101 3103 3104 3106 3106 3106 3106 3108 3109 3110 3110 3111 3112 3113 3115 3116 3117 3118 3118 3119 3119 3119 3120 3120 3120 3120 3120 3120 3120 3120 3121 3121 3121
3094 3093 3092 3092 3093 3095 3096 3097 3098 3099 3101 3102 3103 3104 3104 3105 3106 3107 3108 3108 3109 3110 3111 3112 3113 3114 3115 3116 3116 3116 3117 3117 3118 3118 3118 3117 3117 3117 3117 3117 3117 3117
3092 3091 3091 3091 3092 3093 3093 3095 3096 3097 3097 3098 3100 3101 3101 3103 3104 3105 3105 3106 3107 3109 3110 3110 3111 3111 3112 3113 3113 3114 3114 3115 3115 3115 3115 3115 3115 3114 3114 3114 3114 3114
3090 3090 3089 3089 3090 3090 3090 3091 3093 3093 3094 3095 3097 3098 3099 3101 3101 3102 3103 3104 3105 3107 3107 3108 3108 3109 3110 3110 3110 3111 3111 3112 3112 3113 3113 3113 3112 3112 3112 3112 3111 3111
3087 3087 3087 3087 3087 3088 3088 3088 3090 3091 3092 3093 3094 3095 3097 3098 3099 3100 3101 3102 3103 3104 3105 3105 3106 3107 3107 3108 3108 3108 3109 3109 3109 3110 3110 3110 3110 3109 3109 3109 3109 3108
3083 3083 3083 3083 3084 3085 3085 3085 3086 3088 3089 3090 3091 3093 3094 3095 3096 3097 3098 3099 3100 3101 3102 3103 3103 3104 3105 3105 3105 3106 3106 3106 3106 3106 3106 3106 3106 3106 3105 3105 3105 3104
3080 3080 3080 3081 3081 3082 3083 3083 3084 3085 3086 3087 3089 3090 3091 3092 3093 3094 3095 3096 3097 3098 3099 3100 3101 3101 3102 3102 3102 3103 3103 3103 3103 3103 3103 3102 3102 3102 3102 3101 3101 3100
3077 3077 3077 3077 3078 3078 3079 3080 3082 3082 3083 3084 3085 3086 3087 3088 3089 3091 3092 3093 3094 3095 3096 3097 3097 3098 3098 3099 3099 3099 3100 3100 3099 3099 3099 3099 3098 3098 3098 3097 3097 3096
3074 3074 3074 3074 3074 3075 3076 3077 3078 3079 3080 3081 3082 3082 3083 3084 3085 3087 3088 3090 3091 3091 3092 3093 3094 3095 3095 3096 3096 3096 3097 3096 3096 3095 3095 3095 3094 3094 3093 3093 3092 3092